Weather in Prikholm'ye

Russia / Krasnoyarsk Krai     53°47′45″N   92°04′47″E
temp.,
°C
wind,
m/s
gust,
m/s
humid.,
%
clouds,
%
prec.,
mm/h
press.,
hPa
HPBL,
m
6 may, thu
thu601:00+4e227270 0.0 101729
04:00+3e227367 0.0 101618
07:00+5e2267100 0.0 101687
10:00+11e2253100 0.0 1014379
13:00+17e22425 0.0 1011788
16:00+20ese33380 0.0 1010968
19:00+18e24511 0.0 100973
22:00+12e226516 0.0 100910
7 may, fri
fri701:00+11ese2272100 0.0 100810
04:00+10ese1173100 0.0 100811
07:00+12se2272100 0.0 100874
10:00+17sw3655100 0.0 1007494
13:00+19sw61158100 0.1 1006793
16:00+20wsw4854100 0.2 1006797
19:00+14wsw41089100 2.4 1009510
22:00+13w3873100 2.4 1012241
8 may, sat
sat801:00+11wsw387628 2.8 1015214
04:00+9sw248393 0.1 101698
07:00+10w4107023 0.6 1017705
10:00+13wnw584491 0.0 10182294
13:00+16wsw473498 0.0 10162574
16:00+17w473095 0.0 10152623
19:00+15nw594297 0.0 1015547
22:00+13w6134888 0.0 1016554
9 may, sun
sun901:00+10wsw51364100 0.1 1016495
04:00+11wsw7156399 0.8 1014708
07:00+10wnw51081100 2.4 10151096
10:00+7n797232 0.8 1018697
13:00+11nnw794633 0.8 10181282
16:00+12nnw563736 0.0 10181702
19:00+11n444587 0.0 10191170
22:00+6ne376556 0.0 1021185
10 may, mon
mon1001:00+4ne226991 0.0 102115
04:00+3ene227782 0.0 102017
07:00+5ene247242 0.0 1020225
10:00+9ene345346 0.0 1018865
13:00+13ene334038 0.0 10151357
16:00+14ne33356 0.0 10131538
19:00+13ne2441100 0.0 1012205
22:00+9nne3552100 0.0 101198